Location: Bakov nad Jizerou
(50.4784°N, 14.9394°E)
Time: 23:32:26
(UTC+00:00)

Cosmos 2016 Rocket - Pass Details

Date: 16 June 2021
Orbit: 946 x 1001 km, 83.0° (Epoch: 23 July)

Event Time Altitude Azimuth Distance (km) Brightness Sun altitude
Rises 20:17:06 0° 352° (N) 3,633 8.2 -7.7°
Reaches altitude 10° 20:19:40 10° 357° (N) 2,681 7.3 -8.0°
Maximum altitude 20:25:40 56° 75° (ENE) 1,121 4.2 -8.6°
Enters shadow 20:31:28 11° 153° (SSE) 2,606 5.6 -9.1°
